Flag for Chile Weather past 2 weeks in Santiago, Chile

Now
66 °F

Sunny.


Feels Like: 66 °F
Forecast: 56 / 90 °F
Wind: No wind

Location: Pudahuel

Current Time: Jan 26, 2015 at 10:07:22 AM

Latest Report: Jan 26, 2015 at 9:00 AM


Visibility: 10 mi

Pressure: 29.92 "Hg

Humidity: 60%

Dew point: 52 °F

Location of SantiagoLocation

Historic Weather in Santiago — Graph

°F

Santiago temperature yesterday

Maximum temperature yesterday: 90 °F (at 4:00 PM)
Minimum temperature yesterday: 57 °F (at 7:00 AM)
Average temperature yesterday: 73 °F

Past Weeks' High & Low Weather Summary

 TemperatureHumidityPressure
High93 °F (Jan 11, 3:00 PM)94% (Jan 18, 8:00 AM)30.09 "Hg (Jan 18, 8:00 AM)
Low55 °F (Jan 13, 7:00 AM)15% (Jan 11, 3:00 PM)29.80 "Hg (Jan 11, 5:00 PM)
Average71 °F51%29.95 "Hg
* Reported Jan 11 9:00 AM — Jan 26 9:00 AM, Santiago, Weather by CustomWeather, © 2014

Note: Actual official high and low records may vary slightly from our data, if they occured in-between our weather recording intervals... More about our weather records

Advertising

Santiago weather history for previous 24 hours

 ConditionsComfort  
Time TempWeatherWind HumidityBarometerVisibility
9:00 AM
Jan 26
66 °FSunny.No wind60%29.92 "Hg10 mi
8:00 AM59 °FSunny.1 mph72%29.89 "Hg5 mi
7:00 AM59 °FSunny.2 mph72%29.89 "Hg5 mi
6:00 AM61 °FClear.No wind72%29.89 "Hg5 mi
5:00 AM61 °FClear.5 mph72%29.89 "Hg10 mi
4:00 AM61 °FClear.9 mph72%29.89 "Hg10 mi
3:00 AM61 °FClear.8 mph72%29.89 "Hg10 mi
2:00 AM63 °FClear.8 mph68%29.89 "Hg10 mi
1:00 AM66 °FClear.9 mph60%29.89 "Hg10 mi
12:00 AM66 °FClear.10 mph60%29.89 "Hg10 mi
11:00 PM
Jan 25
68 °FClear.13 mph53%29.92 "Hg10 mi
10:00 PM72 °FClear.12 mph50%29.89 "Hg10 mi
9:00 PM75 °FClear.16 mph44%29.86 "Hg10 mi
8:00 PM79 °FSunny.20 mph39%29.86 "Hg10 mi
7:00 PM81 °FSunny.22 mph34%29.86 "Hg10 mi
6:00 PM84 °FSunny.23 mph29%29.86 "Hg10 mi
5:00 PM90 °FSunny.21 mph22%29.86 "Hg10 mi
4:00 PM90 °FPassing clouds.20 mph21%29.86 "HgN/A
3:00 PM88 °FSunny.17 mph24%29.89 "Hg10 mi
2:00 PM88 °FPassing clouds.13 mph24%29.89 "HgN/A
1:00 PM86 °FPassing clouds.8 mph27%29.92 "HgN/A
12:00 PM81 °FSunny.3 mph34%29.92 "Hg10 mi
11:00 AM77 °FSunny.2 mph39%29.95 "Hg10 mi
10:00 AM73 °FSunny.1 mph47%29.95 "Hg10 mi
Weather by CustomWeather, © 2014

See weather overviewHow to use our weather pages